Weather History for Pittsfield, MA

Change the Weather History Date:

Wednesday, January 22, 2014

  Actual Average Record
Temperature  
Mean Temperature -2 °F 20 °F  
Max Temperature 5 °F 29 °F 56 °F (1959)
Min Temperature -9 °F 11 °F -16 °F (1961)
Degree Days  
Heating Degree Days 67 45  
Month to date heating degree days 954 983  
Since 1 July heating degree days 3802 3821  
Cooling Degree Days 0 0  
Month to date cooling degree days 0 0  
Year to date cooling degree days 0 0  
Moisture  
Dew Point -12 °F    
Average Humidity 62    
Maximum Humidity 72    
Minimum Humidity 51    
Precipitation  
Precipitation 0.00 in 0.08 in 0.85 in (1958)
Month to date precipitation 3.27 2.15  
Year to date precipitation 3.27 2.15  
Sea Level Pressure  
Sea Level Pressure 29.90 in    
Wind  
Wind Speed 10 mph (NW)    
Max Wind Speed 18 mph    
Max Gust Speed 25 mph    
Visibility 10 miles    
Events      
T = Trace of Precipitation, MM = Missing Value Source: NWS Daily Summary

Daily Weather History Graph

Daily Weather History Graph

Search for Another Location

Airport:

Trip Planner

Search our weather history database for the weather conditions in past years. The results will help you decide how hot, cold, wet, or windy it might be!

Date:

Astronomy

Jan. 22, 2014 Rise Set
Actual Time 7:15 AM EST 4:54 PM EST
Civil Twilight 6:45 AM EST 5:24 PM EST
Nautical Twilight 6:10 AM EST 5:59 PM EST
Astronomical Twilight 5:37 AM EST 6:32 PM EST
Moon 11:32 PM EST 10:07 AM EST
Length of Visible Light 10h 39m
Length of Day
9h 38m
Waning Gibbous, 65% of the Moon is Illuminated
Jan 22
Waning Gibbous
Jan 24
Last Quarter
Jan 30
New
Feb 6
First Quarter
Feb 14
Full

Hourly Weather History & Observations

Time (EST) Temp. Windchill Dew Point Humidity Pressure Visibility Wind Dir Wind Speed Gust Speed Precip Events Conditions
12:54 AM 1.0 °F -12.9 °F -9.0 °F 63% 29.88 in 10.0 mi NW 8.1 mph - N/A   Clear
1:54 AM -2.0 °F -16.6 °F -9.9 °F 69% 29.88 in 10.0 mi NW 8.1 mph - N/A   Clear
2:54 AM -4.0 °F -19.0 °F -11.9 °F 69% 29.89 in 10.0 mi WNW 8.1 mph - N/A   Clear
3:54 AM -6.0 °F -23.6 °F -13.0 °F 72% 29.88 in 10.0 mi NW 10.4 mph - N/A   Clear
4:54 AM -7.1 °F -23.9 °F -14.1 °F 72% 29.88 in 10.0 mi NW 9.2 mph - N/A   Clear
5:54 AM -8.0 °F -23.9 °F -15.0 °F 71% 29.90 in 10.0 mi NW 8.1 mph - N/A   Clear
6:54 AM -8.0 °F -22.5 °F -16.1 °F 68% 29.89 in 10.0 mi WNW 6.9 mph - N/A   Clear
7:54 AM -9.0 °F -23.8 °F -17.0 °F 68% 29.89 in 10.0 mi WNW 6.9 mph - N/A   Clear
8:54 AM -7.1 °F -25.9 °F -16.1 °F 65% 29.89 in 10.0 mi WNW 11.5 mph - N/A   Clear
9:54 AM -6.0 °F -24.6 °F -15.0 °F 65% 29.89 in 10.0 mi WNW 11.5 mph - N/A   Clear
10:54 AM -2.0 °F -19.6 °F -13.0 °F 60% 29.85 in 10.0 mi NW 11.5 mph 16.1 mph N/A   Clear
11:54 AM 1.0 °F -18.0 °F -11.0 °F 57% 29.81 in 10.0 mi NNW 15.0 mph 19.6 mph N/A   Clear
12:54 PM 1.9 °F -15.5 °F -11.9 °F 52% 29.80 in 10.0 mi NW 12.7 mph 21.9 mph N/A   Clear
1:54 PM 3.0 °F -14.1 °F -11.0 °F 52% 29.81 in 10.0 mi NW 12.7 mph 24.2 mph N/A   Clear
2:54 PM 3.9 °F -13.0 °F -9.9 °F 53% 29.86 in 10.0 mi NW 12.7 mph 19.6 mph N/A   Clear
3:54 PM 3.9 °F -11.3 °F -9.9 °F 53% 29.88 in 10.0 mi NNW 10.4 mph 19.6 mph N/A   Clear
4:54 PM 3.9 °F -9.4 °F -9.9 °F 53% 29.90 in 10.0 mi NW 8.1 mph 21.9 mph N/A   Clear
5:54 PM 1.9 °F -16.2 °F -9.0 °F 60% 29.93 in 10.0 mi NW 13.8 mph 19.6 mph N/A   Clear
6:54 PM 1.0 °F -16.6 °F -9.9 °F 60% 29.94 in 10.0 mi WNW 12.7 mph - N/A   Clear
7:54 PM -0.0 °F -17.1 °F -9.9 °F 63% 29.96 in 10.0 mi NW 11.5 mph - N/A   Clear
8:54 PM -0.9 °F -17.4 °F -9.9 °F 66% 29.98 in 10.0 mi NW 10.4 mph - N/A   Clear
9:54 PM -0.9 °F -16.4 °F -9.9 °F 66% 29.99 in 10.0 mi NW 9.2 mph 20.7 mph N/A   Clear
10:54 PM -2.0 °F -18.7 °F -11.0 °F 66% 29.99 in 10.0 mi WNW 10.4 mph - N/A   Clear
11:54 PM -2.9 °F -17.7 °F -11.0 °F 68% 29.99 in 10.0 mi NW 8.1 mph - N/A   Clear